| time (UTC) | temp F | wind direction | speed MPH | gust MPH | rain 1hr in | rain 24hr in | rain mn in | humidity % | barometer mb |
| 20260504234037 | 50 | 68 | 5.0 | 8.0 | 0.00 | 0.51 | 0.51 | 92 | 1011.2 |
| 20260504233018 | 50 | 68 | 5.0 | 10.0 | 0.00 | 0.51 | 0.51 | 93 | 1011.1 |
| 20260504232017 | 50 | 45 | 5.0 | 9.0 | 0.00 | 0.51 | 0.51 | 94 | 1011.1 |
| 20260504231037 | 50 | 68 | 4.0 | 7.0 | 0.00 | 0.51 | 0.51 | 94 | 1011.1 |
| 20260504230018 | 50 | 68 | 4.0 | 7.0 | 0.00 | 0.51 | 0.51 | 93 | 1011.1 |
| 20260504225017 | 50 | 158 | 1.0 | 3.0 | 0.00 | 0.51 | 0.51 | 93 | 1011.1 |
| 20260504224017 | 51 | 0.0 | 3.0 | 0.00 | 0.51 | 0.51 | 92 | 1010.8 | |
| 20260504223017 | 51 | 0.0 | 0.0 | 0.00 | 0.51 | 0.51 | 93 | 1010.8 | |
| 20260504222037 | 51 | 0.0 | 0.0 | 0.00 | 0.51 | 0.51 | 93 | 1010.8 | |
| 20260504221017 | 50 | 0.0 | 0.0 | 0.00 | 0.51 | 0.51 | 93 | 1010.5 | |
| 20260504220017 | 50 | 0.0 | 0.0 | 0.00 | 0.51 | 0.51 | 92 | 1010.4 | |
| 20260504215017 | 51 | 248 | 4.0 | 9.0 | 0.00 | 0.51 | 0.51 | 92 | 1010.5 |
| 20260504214037 | 51 | 248 | 5.0 | 9.0 | 0.00 | 0.51 | 0.51 | 91 | 1010.2 |
| 20260504213017 | 52 | 248 | 4.0 | 7.0 | 0.00 | 0.51 | 0.51 | 90 | 1010.3 |
| 20260504212017 | 53 | 203 | 3.0 | 7.0 | 0.01 | 0.51 | 0.51 | 87 | 1010.1 |
| 20260504211017 | 53 | 23 | 5.0 | 10.0 | 0.06 | 0.51 | 0.51 | 85 | 1009.9 |
| 20260504210017 | 53 | 45 | 7.0 | 13.0 | 0.09 | 0.51 | 0.51 | 80 | 1009.8 |
| 20260504205017 | 54 | 68 | 10.0 | 18.0 | 0.24 | 0.51 | 0.51 | 80 | 1009.8 |
| 20260504204017 | 54 | 45 | 8.0 | 15.0 | 0.28 | 0.51 | 0.51 | 85 | 1010.1 |
| 20260504203037 | 55 | 45 | 9.0 | 15.0 | 0.28 | 0.51 | 0.51 | 87 | 1010.0 |
| 20260504202017 | 54 | 45 | 8.0 | 16.0 | 0.27 | 0.50 | 0.50 | 89 | 1010.1 |
| 20260504201017 | 55 | 338 | 2.0 | 10.0 | 0.22 | 0.46 | 0.46 | 84 | 1010.1 |
| 20260504200017 | 54 | 338 | 4.0 | 11.0 | 0.19 | 0.43 | 0.43 | 81 | 1010.1 |
| 20260504195017 | 55 | 68 | 5.0 | 8.0 | 0.04 | 0.28 | 0.28 | 92 | 1009.9 |
| 20260504194017 | 55 | 90 | 2.0 | 6.0 | 0.00 | 0.24 | 0.24 | 91 | 1009.9 |
| 20260504193037 | 55 | 0.0 | 3.0 | 0.00 | 0.24 | 0.24 | 90 | 1009.9 | |
| 20260504192017 | 55 | 0.0 | 2.0 | 0.00 | 0.24 | 0.24 | 90 | 1009.9 | |
| 20260504191017 | 55 | 0.0 | 3.0 | 0.00 | 0.24 | 0.24 | 90 | 1009.8 | |
| 20260504190017 | 55 | 180 | 2.0 | 4.0 | 0.00 | 0.24 | 0.24 | 90 | 1010.0 |
| 20260504185037 | 55 | 225 | 3.0 | 4.0 | 0.00 | 0.24 | 0.24 | 90 | 1010.0 |
| 20260504184017 | 55 | 180 | 3.0 | 4.0 | 0.00 | 0.24 | 0.24 | 90 | 1009.6 |
| 20260504183016 | 55 | 180 | 2.0 | 3.0 | 0.00 | 0.24 | 0.24 | 89 | 1009.3 |
| 20260504182017 | 55 | 180 | 1.0 | 3.0 | 0.00 | 0.24 | 0.24 | 89 | 1009.1 |
| 20260504181017 | 56 | 180 | 2.0 | 4.0 | 0.00 | 0.24 | 0.24 | 89 | 1009.4 |
| 20260504180037 | 56 | 158 | 1.0 | 2.0 | 0.00 | 0.24 | 0.24 | 88 | 1009.2 |
| 20260504175016 | 56 | 0.0 | 3.0 | 0.00 | 0.24 | 0.24 | 86 | 1009.2 | |
| 20260504174017 | 56 | 0.0 | 0.0 | 0.00 | 0.24 | 0.24 | 84 | 1009.3 | |
| 20260504173017 | 56 | 0.0 | 2.0 | 0.00 | 0.24 | 0.24 | 86 | 1009.3 | |
| 20260504172017 | 55 | 180 | 2.0 | 3.0 | 0.00 | 0.24 | 0.24 | 86 | 1009.5 |
| 20260504171017 | 55 | 180 | 2.0 | 3.0 | 0.00 | 0.24 | 0.24 | 87 | 1009.6 |
| 20260504151016 | 56 | 113 | 1.0 | 3.0 | 0.15 | 0.24 | 0.24 | 88 | 1009.8 |
| 20260504141016 | 60 | 180 | 3.0 | 5.0 | 0.00 | 0.09 | 0.09 | 75 | 1010.3 |
| 20260504081017 | 55 | 203 | 4.0 | 7.0 | 0.00 | 0.09 | 0.09 | 89 | 1012.0 |
| 20260504050017 | 53 | 113 | 1.0 | 2.0 | 0.00 | 0.00 | 0.00 | 90 | 1012.3 |
| 20260504045017 | 53 | 135 | 1.0 | 2.0 | 0.00 | 0.00 | 0.00 | 90 | 1012.2 |
| 20260504044016 | 53 | 0.0 | 0.0 | 0.00 | 0.00 | 0.00 | 90 | 1012.2 | |
| 20260504043016 | 53 | 0.0 | 2.0 | 0.00 | 0.00 | 0.00 | 90 | 1012.3 | |
| 20260504042016 | 53 | 135 | 1.0 | 4.0 | 0.00 | 0.01 | 0.00 | 89 | 1012.2 |
| 20260504041016 | 53 | 68 | 1.0 | 2.0 | 0.00 | 0.01 | 0.00 | 89 | 1012.2 |
| 20260504040016 | 53 | 0.0 | 0.0 | 0.00 | 0.01 | 0.00 | 89 | 1012.3 | |
| 20260504035036 | 53 | 0.0 | 2.0 | 0.00 | 0.01 | 0.00 | 88 | 1012.1 | |
| 20260504034016 | 53 | 158 | 1.0 | 3.0 | 0.00 | 0.01 | 0.00 | 88 | 1012.2 |
| 20260504033016 | 53 | 158 | 1.0 | 3.0 | 0.00 | 0.02 | 0.00 | 88 | 1012.2 |
| 20260504032016 | 53 | 158 | 1.0 | 3.0 | 0.00 | 0.02 | 0.00 | 88 | 1012.3 |
| 20260504031016 | 53 | 113 | 1.0 | 2.0 | 0.00 | 0.02 | 0.00 | 88 | 1012.3 |
| 20260504030056 | 53 | 68 | 1.0 | 3.0 | 0.00 | 0.02 | 0.00 | 88 | 1012.4 |
| 20260504025016 | 53 | 0.0 | 2.0 | 0.00 | 0.02 | 0.00 | 88 | 1012.4 | |
| 20260504024016 | 53 | 0.0 | 3.0 | 0.00 | 0.02 | 0.00 | 87 | 1012.3 | |
| 20260504023036 | 53 | 45 | 1.0 | 3.0 | 0.00 | 0.02 | 0.00 | 87 | 1012.4 |
| 20260504022016 | 53 | 68 | 2.0 | 5.0 | 0.00 | 0.02 | 0.00 | 88 | 1012.4 |
| 20260504021016 | 54 | 90 | 3.0 | 5.0 | 0.00 | 0.02 | 0.00 | 87 | 1012.6 |
| 20260504020036 | 54 | 113 | 1.0 | 5.0 | 0.00 | 0.02 | 0.00 | 86 | 1012.7 |
| 20260504015016 | 54 | 0.0 | 2.0 | 0.00 | 0.02 | 0.00 | 85 | 1012.8 | |
| 20260504014016 | 54 | 113 | 1.0 | 2.0 | 0.00 | 0.02 | 0.00 | 86 | 1013.1 |
| 20260504013016 | 54 | 45 | 1.0 | 2.0 | 0.00 | 0.02 | 0.00 | 86 | 1013.1 |
| 20260504012016 | 54 | 0.0 | 2.0 | 0.00 | 0.02 | 0.00 | 86 | 1013.4 | |
| 20260504011036 | 54 | 248 | 1.0 | 2.0 | 0.00 | 0.02 | 0.00 | 86 | 1013.5 |
| 20260504010036 | 54 | 248 | 2.0 | 3.0 | 0.00 | 0.02 | 0.00 | 86 | 1013.6 |
| 20260504005036 | 54 | 248 | 2.0 | 5.0 | 0.00 | 0.02 | 0.00 | 86 | 1013.6 |
| 20260504004016 | 54 | 293 | 2.0 | 3.0 | 0.00 | 0.02 | 0.00 | 86 | 1013.6 |
| 20260504003018 | 54 | 203 | 2.0 | 4.0 | 0.00 | 0.02 | 0.00 | 86 | 1013.4 |
| 20260504002017 | 54 | 225 | 2.0 | 4.0 | 0.00 | 0.02 | 0.00 | 85 | 1013.3 |
| 20260504001018 | 54 | 270 | 3.0 | 5.0 | 0.00 | 0.02 | 0.00 | 85 | 1013.4 |
| 20260504000016 | 54 | 248 | 3.0 | 4.0 | 0.00 | 0.02 | 0.02 | 85 | 1013.2 |
| 20260503235016 | 54 | 0.0 | 2.0 | 0.00 | 0.02 | 0.02 | 84 | 1013.2 |